Location: �clusier
(49.9361°N, 2.7869°E)
Time: 21:00:35
(UTC+00:00)

ATLAS CENTAUR R/B - Pass Details

Date: 31 October 2021
Orbit: 459 x 682 km, 64.7° (Epoch: 25 November)

Event Time Altitude Azimuth Distance (km) Brightness Sun altitude
Exits shadow 04:08:02 13° 351° (N) 1,819 3.9 -24.3°
Maximum altitude 04:08:23 13° 356° (N) 1,819 4.0 -24.3°
Drops below altitude 10° 04:10:25 10° 22° (NNE) 2,019 4.5 -24.0°
Sets 04:14:07 0° 51° (NE) 2,977 6.0 -23.4°
